TimeCST,TemperatureF,Dew PointF,Humidity,Sea Level PressureIn,VisibilityMPH,Wind Direction,Wind SpeedMPH,Gust SpeedMPH,PrecipitationIn,Events,Conditions,WindDirDegrees,DateUTC
12:52 AM,46.9,32.0,56,30.18,10.0,SSW,9.2,-,N/A,,Clear,200,2013-01-19 06:52:00
1:52 AM,45.0,32.0,60,30.18,10.0,South,8.1,-,N/A,,Clear,180,2013-01-19 07:52:00
2:52 AM,46.0,32.0,58,30.16,10.0,South,15.0,20.7,N/A,,Clear,190,2013-01-19 08:52:00
3:52 AM,44.1,32.0,63,30.15,10.0,South,10.4,-,N/A,,Clear,180,2013-01-19 09:52:00
4:52 AM,44.1,32.0,63,30.14,10.0,South,11.5,-,N/A,,Clear,190,2013-01-19 10:52:00
5:52 AM,44.1,32.0,63,30.15,10.0,SSW,9.2,-,N/A,,Clear,200,2013-01-19 11:52:00
6:52 AM,45.0,32.0,60,30.15,10.0,South,13.8,-,N/A,,Clear,190,2013-01-19 12:52:00
8:52 AM,48.0,32.0,54,30.17,10.0,SSW,6.9,-,N/A,,Clear,200,2013-01-19 14:52:00
9:52 AM,50.0,33.1,52,30.19,10.0,SSW,12.7,17.3,N/A,,Clear,200,2013-01-19 15:52:00
10:52 AM,55.0,33.1,43,30.18,10.0,SSW,18.4,27.6,N/A,,Clear,210,2013-01-19 16:52:00
11:52 AM,57.9,33.1,39,30.15,10.0,SW,17.3,-,N/A,,Clear,220,2013-01-19 17:52:00
12:52 PM,63.0,33.1,33,30.11,10.0,SW,15.0,20.7,N/A,,Clear,230,2013-01-19 18:52:00
1:52 PM,64.9,30.9,28,30.08,10.0,WSW,10.4,-,N/A,,Clear,250,2013-01-19 19:52:00
2:52 PM,68.0,28.9,23,30.06,10.0,WSW,10.4,-,N/A,,Clear,250,2013-01-19 20:52:00
3:52 PM,70.0,26.1,19,30.06,10.0,West,10.4,-,N/A,,Clear,270,2013-01-19 21:52:00
4:52 PM,69.1,26.1,20,30.07,10.0,West,5.8,-,N/A,,Clear,260,2013-01-19 22:52:00
5:52 PM,64.0,25.0,23,30.08,10.0,NW,4.6,-,N/A,,Clear,310,2013-01-19 23:52:00
6:52 PM,60.1,25.0,26,30.11,10.0,NNW,4.6,-,N/A,,Clear,330,2013-01-20 00:52:00
7:52 PM,51.1,27.0,39,30.14,10.0,Calm,Calm,-,N/A,,Clear,0,2013-01-20 01:52:00
8:52 PM,51.1,27.0,39,30.16,10.0,NW,3.5,-,N/A,,Clear,320,2013-01-20 02:52:00
9:52 PM,45.0,28.0,52,30.18,10.0,West,4.6,-,N/A,,Clear,270,2013-01-20 03:52:00
10:52 PM,42.1,28.9,60,30.19,10.0,WSW,3.5,-,N/A,,Clear,240,2013-01-20 04:52:00
11:52 PM,42.1,28.9,60,30.19,10.0,West,3.5,-,N/A,,Clear,270,2013-01-20 05:52:00